Wind_Speed
26 24 18 14 29 33 38 36 33 35 36 32 37 41 37 38 32 33 33 28 30 27 29 35 33 33 35 36 37 37 38 36 36 37 38 40 42 45 46 48 49 50 52 53
31 29 26 25 19 33 43 43 37 41 40 34 36 40 38 33 30 32 34 35 37 39 39 37 37 35 38 42 43 44 45 46 44 44 44 45 47 48 51 53 54 55 57 58
39 36 34 30 30 31 41 45 36 38 41 41 36 37 36 41 33 28 30 34 39 45 49 48 41 41 43 42 46 48 47 49 51 52 52 53 54 55 57 59 61 62 62 63
40 39 37 41 31 30 33 40 40 37 41 45 42 44 44 37 34 35 38 43 38 32 38 43 44 45 43 44 46 47 50 52 55 57 59 61 62 63 64 65 67 69 70 71
45 42 39 42 35 31 37 45 44 43 45 45 46 45 49 48 49 49 43 40 39 40 43 40 43 45 46 47 50 53 56 58 60 63 65 68 71 73 74 76 76 76 77 79
45 43 40 41 43 27 26 35 38 40 38 34 34 42 46 51 49 43 38 42 46 54 58 49 47 49 49 51 54 57 60 63 66 68 71 74 76 77 78 79 80 79 79 79
47 45 43 43 38 28 34 31 32 32 34 33 33 43 46 53 52 54 49 54 49 44 44 47 50 51 52 53 58 61 63 65 68 71 73 73 74 74 75 74 75 75 76 74
51 47 43 49 47 48 41 36 38 39 39 43 46 50 49 46 52 56 57 54 44 44 44 47 49 52 54 57 59 62 64 66 69 70 69 68 68 68 69 71 73 71 71 69
48 45 44 46 52 49 44 41 45 45 41 46 58 43 39 39 46 54 55 48 42 43 45 48 52 56 58 59 61 63 66 68 68 64 64 65 67 68 66 65 61 57 56 56
45 44 46 50 51 53 47 42 43 44 48 52 35 31 31 30 30 32 36 39 40 44 49 52 55 57 59 62 64 66 68 66 64 64 66 65 67 66 67 60 49 45 43 40
44 46 47 48 51 49 51 54 51 51 52 33 28 27 27 29 31 34 37 40 43 47 51 53 55 58 61 64 66 66 65 65 65 67 67 68 65 65 63 57 46 40 40 41
44 43 43 45 42 41 38 35 31 25 26 24 25 25 27 31 34 38 41 44 47 49 50 53 56 58 62 65 66 66 67 69 69 68 68 68 65 64 60 56 46 42 40 41
34 31 29 31 32 28 24 20 21 23 22 24 25 27 31 35 38 42 45 48 47 49 52 54 58 61 64 64 66 68 69 67 66 68 69 69 69 65 58 55 47 44 43 45
22 23 27 24 23 22 18 17 19 22 24 27 30 32 36 39 42 44 45 45 47 49 52 56 60 62 63 65 67 69 67 67 69 72 72 70 69 69 61 49 43 44 47 46
22 23 22 20 21 19 18 20 25 27 29 30 33 36 40 42 42 42 42 45 50 53 56 59 61 62 65 68 70 68 69 70 71 73 74 72 68 61 53 45 39 39 48 50
24 22 20 20 19 20 23 27 29 30 32 35 38 39 40 42 42 43 47 51 53 53 57 60 62 64 66 68 67 69 72 76 76 73 70 66 58 51 43 39 37 34 37 41
20 22 22 22 24 26 25 27 31 32 36 37 38 38 40 43 46 49 52 50 52 54 60 62 64 64 67 68 72 74 76 76 72 66 60 54 47 40 36 35 33 34 37 39
22 22 25 25 26 26 27 30 30 33 36 37 39 40 43 47 50 52 51 52 54 58 63 64 65 66 69 74 78 79 78 71 64 57 50 44 36 31 29 29 28 30 33 38
26 27 26 26 27 29 30 32 34 35 36 38 41 44 48 51 55 56 55 56 57 61 65 66 66 68 71 77 80 81 75 62 54 49 43 35 30 27 26 27 28 31 35 39
24 25 27 29 30 32 34 37 39 40 41 44 46 48 50 53 56 56 56 58 59 64 66 67 67 69 75 79 81 78 65 55 47 40 37 33 27 26 26 30 34 37 39 40
27 30 31 33 33 35 40 42 42 42 46 48 50 51 54 57 57 56 57 61 61 66 68 67 69 72 77 80 79 67 55 49 43 34 33 29 26 26 27 29 32 35 38 41
33 35 34 36 37 37 38 39 42 45 49 51 52 55 59 61 58 58 61 63 67 67 69 71 72 76 80 81 71 54 47 44 40 34 28 27 27 25 24 27 30 36 35 34
39 40 41 43 44 46 45 45 48 49 52 54 55 58 60 58 57 59 62 64 67 70 71 72 77 78 82 76 58 45 42 43 38 33 27 24 24 24 26 28 32 29 31 38
43 45 46 47 49 50 51 52 53 55 56 59 61 64 61 58 59 63 65 68 68 72 73 75 77 80 80 63 48 45 44 40 35 31 26 24 24 23 27 30 27 28 33 36
49 50 52 51 50 51 53 56 57 57 59 62 65 63 60 62 65 67 69 69 71 71 72 75 78 80 69 54 44 41 37 32 30 29 27 26 28 28 28 28 25 28 35 39
57 55 52 53 54 56 58 59 60 61 63 65 65 63 65 68 69 70 70 70 70 69 71 72 77 74 60 48 40 35 30 28 27 29 30 29 29 28 27 28 27 29 34 38
53 54 55 55 57 61 62 62 64 65 64 63 65 66 67 69 70 71 71 71 70 70 67 70 75 65 53 44 36 31 26 23 23 27 31 33 30 29 29 29 30 30 33 38
Wind_Direction
268 258 240 268 263 229 237 228 222 228 227 222 231 228 230 234 241 249 261 259 262 272 273 290 292 283 275 268 265 265 265 266 269 272 275 276 278 277 276 274 272 270 267 266
259 257 244 251 265 256 236 238 236 235 236 231 234 239 228 233 235 244 251 250 254 270 279 285 283 279 276 275 272 269 268 268 271 274 277 278 278 275 275 275 274 271 270 269
261 264 256 256 267 252 243 242 239 249 235 235 240 246 249 243 250 262 256 260 267 270 276 280 277 279 279 278 274 274 271 274 278 278 277 276 275 273 271 270 270 270 270 270
261 266 262 255 265 257 241 235 234 249 241 237 240 245 253 256 264 272 269 279 276 282 288 286 283 284 285 283 281 280 280 280 280 280 280 280 278 277 275 273 270 269 267 267
263 265 264 255 261 260 235 229 237 248 247 243 250 254 257 258 257 267 272 270 276 278 287 289 292 286 284 285 287 287 286 286 286 285 285 283 282 282 280 278 277 275 272 269
255 262 265 261 260 252 253 238 245 249 247 257 268 278 279 271 268 268 275 282 284 280 281 288 289 285 282 283 284 286 289 291 290 289 288 287 287 286 284 282 279 276 273 271
253 256 262 262 255 241 246 252 251 247 252 268 265 282 281 281 273 260 272 280 283 273 274 278 280 279 284 289 292 292 292 292 291 292 291 290 288 287 285 284 282 279 275 272
249 252 256 257 256 261 252 249 248 252 265 271 285 286 287 275 266 265 267 277 275 271 275 279 283 288 292 292 292 294 295 295 295 295 295 293 292 292 290 289 284 280 275 271
249 252 254 262 267 266 262 258 261 273 281 283 290 278 274 270 264 260 263 268 271 278 284 289 293 293 294 294 294 295 296 298 298 297 296 296 298 298 299 295 288 279 271 266
250 254 257 259 260 268 275 275 277 282 286 292 268 260 261 261 263 264 267 273 281 287 291 292 291 291 293 295 296 298 299 298 298 298 299 298 301 303 305 304 292 279 267 258
251 253 255 258 258 264 269 271 274 279 280 258 250 252 252 254 259 267 275 282 286 287 288 290 292 293 295 297 299 300 300 301 301 301 301 301 303 304 304 304 290 270 257 254
249 248 249 256 265 267 271 273 272 250 244 246 246 250 259 268 275 282 287 288 289 289 291 292 293 296 299 302 302 302 302 302 302 303 303 302 301 302 302 302 288 266 254 254
242 249 259 261 260 262 258 245 238 243 246 252 262 274 283 287 289 289 289 289 291 293 293 296 298 300 303 304 304 304 304 304 303 304 302 300 299 300 301 298 286 264 255 258
240 239 238 236 232 238 239 241 252 263 272 279 284 285 284 285 287 287 288 291 292 295 298 300 304 305 304 305 306 306 306 305 304 302 301 301 300 300 299 292 280 263 254 255
207 216 223 223 229 238 249 259 265 271 275 277 279 283 287 288 288 289 290 294 299 301 303 304 307 305 306 307 308 308 307 307 305 302 302 301 299 298 293 285 276 263 248 254
204 211 220 232 243 253 260 266 271 276 282 285 288 290 291 292 292 293 296 300 301 302 306 308 308 309 308 309 310 311 311 309 307 305 303 301 299 294 286 277 273 264 253 255
213 223 233 243 252 258 262 269 277 284 286 288 290 291 291 293 294 296 299 300 303 305 307 310 311 310 312 313 313 313 313 312 309 306 303 300 295 287 278 271 268 260 256 258
227 240 248 251 254 262 269 274 279 282 286 289 289 292 296 297 299 302 301 303 307 308 310 311 311 312 314 315 315 315 315 313 308 305 302 298 291 281 268 266 264 264 263 265
229 234 244 257 264 269 274 279 280 283 287 291 293 296 298 299 302 303 302 303 306 308 311 312 312 313 314 315 316 317 315 311 306 302 298 293 285 269 260 254 258 262 266 271
246 250 257 262 266 271 273 277 281 286 289 290 293 294 296 298 300 300 299 302 307 309 311 313 312 314 315 317 317 317 313 309 306 300 293 289 275 264 253 258 263 268 275 279
254 259 265 270 273 276 281 283 284 284 287 290 294 296 298 300 299 300 301 304 308 310 312 312 314 316 315 318 317 315 310 307 305 300 291 280 265 259 260 264 268 275 280 285
261 267 268 275 277 281 287 288 287 287 288 290 291 295 299 300 300 300 302 306 309 311 312 314 316 316 318 319 317 311 307 308 306 303 287 266 260 260 264 273 277 282 291 295
263 267 270 273 278 281 285 285 286 289 289 287 289 294 297 298 299 300 302 307 308 312 312 315 316 319 319 318 312 306 304 303 302 294 281 268 260 267 272 278 284 293 296 300
271 274 274 275 278 279 282 285 288 288 288 289 294 298 298 297 298 301 304 307 309 313 313 315 317 319 318 314 306 302 297 291 290 279 272 266 264 263 271 276 284 290 302 309
270 273 277 276 277 280 281 283 284 284 288 292 294 295 295 297 299 300 303 307 308 310 312 316 316 318 317 312 306 302 293 284 276 267 261 261 267 272 274 280 285 294 308 316
271 272 271 274 277 280 282 282 285 288 290 290 291 293 295 297 298 299 302 305 307 309 312 313 316 318 316 311 308 301 290 278 268 259 254 258 265 269 273 280 285 295 311 320
268 269 272 275 278 280 283 285 288 291 292 291 292 293 295 296 298 301 303 306 306 308 312 316 319 318 312 314 315 301 284 275 273 265 259 259 263 262 274 281 285 299 309 318
Height
10872 10872 10872 10870 10868 10867 10868 10870 10869 10870 10870 10874 10872 10873 10877 10878 10881 10882 10882 10883 10883 10883 10883 10883 10883 10882 10882 10882 10881 10880 10879 10877 10875 10874 10871 10870 10868 10867 10866 10865 10864 10864 10863 10863
10862 10865 10866 10864 10862 10863 10860 10860 10864 10863 10866 10869 10866 10867 10870 10870 10873 10876 10877 10877 10877 10876 10876 10877 10875 10874 10872 10871 10870 10869 10867 10864 10862 10861 10860 10858 10858 10856 10854 10851 10850 10849 10848 10847
10852 10855 10859 10858 10856 10853 10854 10856 10857 10856 10859 10860 10861 10862 10861 10863 10864 10867 10868 10868 10868 10868 10868 10867 10866 10864 10863 10861 10859 10857 10855 10852 10849 10846 10845 10844 10843 10842 10840 10837 10835 10833 10832 10830
10842 10846 10848 10846 10849 10848 10847 10847 10848 10849 10852 10855 10857 10856 10855 10855 10856 10857 10859 10858 10857 10856 10855 10853 10851 10850 10849 10848 10846 10844 10841 10838 10835 10831 10828 10826 10824 10823 10821 10818 10815 10814 10813 10812
10832 10835 10839 10838 10841 10842 10840 10841 10842 10842 10845 10850 10850 10851 10850 10850 10850 10850 10850 10850 10850 10849 10846 10842 10840 10839 10837 10834 10831 10828 10825 10822 10818 10813 10810 10807 10804 10800 10796 10792 10789 10788 10787 10786
10825 10825 10828 10830 10831 10834 10835 10836 10836 10840 10843 10845 10845 10842 10839 10839 10838 10840 10839 10838 10839 10838 10834 10832 10829 10827 10825 10823 10819 10815 10810 10805 10800 10795 10791 10785 10780 10774 10770 10764 10759 10758 10754 10754
10811 10815 10818 10819 10821 10825 10828 10828 10830 10832 10836 10836 10834 10832 10829 10827 10827 10829 10829 10829 10827 10824 10822 10821 10818 10816 10812 10809 10804 10799 10795 10789 10782 10776 10769 10764 10758 10750 10744 10738 10732 10728 10723 10725
10799 10804 10807 10807 10810 10814 10818 10821 10823 10826 10826 10824 10823 10820 10819 10815 10815 10817 10818 10817 10815 10813 10811 10808 10805 10801 10798 10794 10789 10783 10777 10770 10763 10756 10748 10740 10734 10728 10721 10712 10704 10700 10696 10695
10789 10794 10796 10795 10795 10799 10806 10812 10814 10815 10812 10811 10808 10805 10803 10803 10804 10806 10808 10807 10804 10800 10797 10795 10790 10786 10782 10777 10772 10766 10759 10751 10744 10736 10729 10722 10714 10706 10699 10688 10680 10675 10672 10672
10780 10782 10783 10782 10785 10788 10792 10796 10799 10799 10800 10798 10796 10795 10796 10796 10796 10796 10795 10795 10792 10789 10786 10782 10777 10772 10768 10762 10756 10749 10742 10734 10725 10717 10711 10704 10695 10686 10676 10666 10661 10657 10656 10657
10770 10769 10771 10772 10774 10779 10782 10784 10787 10789 10789 10788 10789 10789 10789 10789 10789 10789 10788 10787 10784 10779 10774 10769 10764 10758 10752 10745 10738 10730 10722 10714 10706 10698 10690 10683 10677 10668 10661 10651 10646 10644 10644 10645
10757 10759 10761 10763 10767 10768 10771 10774 10776 10776 10779 10782 10781 10781 10781 10781 10781 10778 10775 10773 10770 10766 10761 10756 10749 10743 10735 10727 10718 10710 10703 10695 10686 10678 10670 10661 10656 10653 10643 10636 10631 10631 10631 10632
10746 10750 10754 10755 10756 10759 10763 10766 10768 10769 10772 10773 10773 10772 10771 10770 10768 10765 10762 10759 10756 10752 10746 10741 10733 10726 10718 10709 10700 10691 10683 10675 10666 10658 10651 10643 10634 10629 10629 10621 10616 10615 10617 10619
10742 10745 10746 10749 10751 10753 10757 10760 10760 10761 10762 10763 10763 10762 10761 10759 10757 10754 10750 10746 10742 10737 10731 10725 10717 10709 10700 10692 10683 10673 10664 10656 10648 10639 10631 10623 10615 10607 10604 10604 10601 10600 10601 10602
10738 10740 10742 10745 10747 10749 10752 10753 10754 10755 10755 10755 10755 10753 10751 10748 10745 10742 10738 10733 10728 10722 10716 10709 10701 10692 10684 10674 10665 10656 10647 10637 10628 10618 10609 10601 10595 10589 10585 10584 10585 10585 10586 10588
10733 10737 10739 10740 10743 10745 10747 10747 10747 10747 10746 10744 10743 10741 10738 10735 10733 10729 10725 10720 10714 10708 10701 10693 10684 10676 10666 10657 10648 10639 10628 10617 10606 10595 10586 10579 10574 10570 10569 10568 10569 10571 10573 10576
10731 10733 10735 10737 10738 10740 10741 10740 10738 10737 10735 10734 10733 10730 10728 10725 10721 10717 10711 10706 10700 10694 10686 10677 10668 10659 10649 10639 10629 10620 10609 10596 10583 10574 10567 10561 10557 10555 10554 10555 10556 10558 10561 10563
10726 10728 10729 10732 10733 10733 10733 10732 10731 10729 10727 10724 10722 10719 10716 10712 10707 10701 10696 10691 10685 10678 10670 10662 10653 10644 10633 10621 10609 10599 10588 10577 10565 10557 10552 10547 10544 10543 10544 10545 10546 10547 10549 10550
10722 10724 10724 10723 10724 10724 10724 10723 10721 10719 10718 10714 10710 10706 10702 10697 10691 10686 10681 10676 10672 10664 10655 10647 10638 10628 10617 10605 10592 10579 10567 10559 10551 10542 10538 10537 10534 10534 10535 10537 10538 10539 10539 10539
10714 10716 10716 10716 10716 10715 10714 10712 10710 10708 10705 10701 10698 10695 10691 10686 10680 10674 10667 10662 10658 10648 10641 10633 10624 10612 10600 10589 10575 10561 10550 10542 10537 10532 10527 10527 10526 10525 10527 10529 10530 10529 10529 10528
10706 10706 10706 10706 10706 10705 10704 10702 10700 10698 10693 10689 10685 10681 10677 10672 10666 10660 10655 10648 10643 10634 10624 10617 10608 10596 10583 10571 10558 10544 10535 10529 10524 10522 10518 10517 10517 10518 10520 10521 10521 10521 10519 10517
10696 10696 10696 10696 10694 10693 10692 10690 10687 10685 10681 10677 10673 10668 10663 10657 10653 10647 10640 10634 10625 10618 10608 10599 10589 10578 10564 10552 10541 10533 10524 10519 10513 10512 10510 10509 10510 10511 10512 10513 10512 10511 10508 10505
10687 10686 10685 10684 10682 10681 10679 10677 10674 10672 10669 10664 10661 10658 10653 10646 10640 10634 10626 10621 10610 10601 10591 10582 10571 10558 10546 10535 10527 10522 10516 10511 10507 10504 10503 10503 10504 10504 10504 10504 10503 10502 10499 10495
10674 10674 10673 10673 10671 10668 10665 10662 10658 10655 10651 10646 10643 10639 10635 10629 10624 10618 10612 10602 10594 10584 10573 10565 10553 10542 10531 10519 10513 10507 10503 10499 10498 10496 10495 10495 10496 10497 10497 10496 10494 10492 10489 10484
10662 10661 10659 10657 10655 10653 10650 10646 10642 10640 10636 10631 10625 10622 10618 10612 10607 10600 10594 10586 10577 10570 10561 10550 10537 10526 10514 10505 10499 10493 10488 10487 10487 10486 10487 10487 10487 10488 10488 10487 10486 10482 10478 10473
10648 10646 10644 10642 10640 10637 10634 10631 10628 10625 10621 10616 10609 10607 10602 10596 10590 10584 10578 10571 10563 10554 10545 10536 10523 10510 10500 10492 10485 10480 10477 10476 10477 10477 10479 10480 10480 10480 10479 10479 10478 10475 10470 10464
10630 10629 10628 10627 10626 10622 10619 10616 10612 10607 10603 10600 10594 10591 10585 10578 10572 10566 10560 10552 10544 10537 10530 10520 10507 10496 10488 10482 10475 10471 10469 10469 10469 10470 10471 10472 10472 10472 10471 10470 10469 10466 10462 10456